Location: Karcze
(52.0945°N, 22.4786°E)
Time: 01:43:32
(UTC+00:00)

A-11 Canister half - Pass Details

Date: 09 August 2021
Orbit: 1514 x 1685 km, 47.2° (Epoch: 16 September)

Event Time Altitude Azimuth Distance (km) Brightness Sun altitude
Rises 15:53:03 0° 260° (W) 4,781 13.1 18.8°
Reaches altitude 10° 15:56:07 10° 258° (WSW) 3,819 13.0 18.3°
Maximum altitude 16:05:46 68° 179° (S) 1,753 9.6 16.8°
Drops below altitude 10° 16:15:44 10° 100° (E) 3,935 10.6 15.3°
Sets 16:18:56 0° 98° (E) 4,933 11.0 14.8°
